Location: *
(38.9800°N, 16.0500°E)
Time: 22:14:02
(UTC+00:00)

H-2A R/B - Pass Details

Date: 07 April 2020
Orbit: 578 x 655 km, 98.5° (Epoch: 24 May)

Event Time Altitude Azimuth Distance (km) Brightness Sun altitude
Exits shadow 02:55:42 12° 311° (NW) 1,830 4.2 -18.4°
Drops below altitude 10° 02:56:03 10° 314° (NW) 1,931 4.4 -18.4°
Sets 02:58:38 0° 331° (NNW) 2,826 5.4 -17.9°
